sat.trackr.live / text

‹ back to catalog

INMARSAT 5-F1

NORAD 39476 · 2013-073A

PAYLOAD ACTIVE UNKNOWN

§ Identity

Operator
Country
IM
Launch date
2013-12-08
Launch site
TYMSC
Launch vehicle
Mass (kg)
RCS (m²)
7.17

Purposes: comms

External: N2YO · Heavens-Above · Gunter

§ Orbital elements

Epoch: 2026-09-19T00:09:41.969664Z

Period
1,436.09 min
Inclination
0.0182°
Eccentricity
0.0000345
Mean motion
1.00272104 rev/d
Perigee alt
35,785.1 km
Apogee alt
35,788.0 km
Semi-major
42,164.6 km
B*
0.0000e+0
RAAN
152.2024°
Arg perigee
352.8506°
Mean anomaly
277.9432°
Rev number
4,651

§ Raw data

INMARSAT 5-F11 39476U 13073A   26262.00673576  .00000023  00000+0  00000+0 0  99982 39476   0.0182 152.2024 0000345 352.8506 277.9432  1.00272104 46516

JSON: /api/v1/satellites/39476 · /tle

For live sub-satellite position, see the globe view (requires WebGL).

§ Visibility from observer

Set your observer location to see the next 7 days of passes ≥ 10°. The values pass through the URL so the page stays shareable.

No JS? Fill the form by hand. The geolocation button needs JavaScript.